Date String (YYYY-MM-DD hh:mm:ss) UTC,Instrument flags,absolute air pressure of the measurement (hPa),sample flow rate (lpm),inlet stack bypass flow (lpm),air temperature of the measurement (°C),ambient temperature measured by the external sensor (°C),aerosol sample conditioner tube jacket temperature (°C),OPC LED temperature (°C),internal box temperature (°C),relative humidity of the measurement (%),span deviation,mass concentration of particles derived from Lorenz-Mie calculation of OPC scattering (μg/m³),mass concentration of particles derived from Lorenz-Mie calculation of OPC scattering (μg/m³),mass concentration of particles derived from Lorenz-Mie calculation of OPC scattering (μg/m³)
DateTimeUTC,F1_M11,P_M11,Q1_M11,Q2_M11,T1_M11,T2_M11,T3_M11,T4_M11,T5_M11,U1_M11,ZSPAN_M11,X0_M11,X2_M11,X1_M11
2023-11-17 19:00:00,SystemResetWarning,0831.0,5.00,000.00,025.8,024.9,000.0,033.8,027.4,20.1,0000.8,0013.67,0008.43,0007.78
2023-11-17 19:01:00,SystemResetWarning,0831.1,5.00,000.00,025.8,025.0,000.0,033.9,027.5,20.0,0001.2,0013.46,0008.42,0007.82
2023-11-17 19:02:00,SystemResetWarning,0831.0,5.00,000.00,025.9,025.1,000.0,033.9,027.5,19.9,0001.6,0013.40,0008.40,0007.82
2023-11-17 19:03:00,SystemResetWarning,0830.9,5.00,000.00,025.9,025.1,000.0,033.9,027.6,20.0,0001.4,0012.94,0008.38,0007.83
2023-11-17 19:04:00,SystemResetWarning,0830.9,4.98,000.00,025.9,024.0,000.0,033.9,027.5,19.9,0000.9,0012.84,0008.36,0007.86
2023-11-17 19:05:00,SystemResetWarning,0830.9,5.01,000.00,025.8,022.1,000.0,033.9,027.0,19.9,0000.8,0013.09,0008.41,0007.89
2023-11-17 19:06:00,SystemResetWarning,0830.8,5.01,000.00,025.7,021.6,000.0,033.8,026.7,20.1,0000.8,0014.28,0008.45,0007.92
2023-11-17 19:07:00,SystemResetWarning,0830.7,5.01,000.00,025.5,021.9,000.0,033.8,026.4,20.2,0000.8,0014.32,0008.47,0007.95
2023-11-17 19:08:00,SystemResetWarning,0830.7,4.99,000.00,025.4,022.4,000.0,033.7,026.4,20.5,0000.8,0013.85,0008.54,0007.99
2023-11-17 19:09:00,SystemResetWarning,0830.8,4.99,000.00,025.4,022.8,000.0,033.7,026.6,20.4,0000.7,0013.40,0008.55,0008.03
2023-11-17 19:10:00,SystemResetWarning,0830.7,4.99,000.00,025.4,023.2,000.0,033.7,026.7,20.4,0000.9,0013.89,0008.63,0008.08
2023-11-17 19:11:00,SystemResetWarning,0830.7,5.00,000.00,025.4,023.6,000.0,033.7,026.8,20.3,0001.0,0013.90,0008.71,0008.13
2023-11-17 19:12:00,SystemResetWarning,0830.8,5.00,000.00,025.5,023.8,000.0,033.7,026.9,20.3,0000.8,0014.13,0008.79,0008.15
2023-11-17 19:13:00,SystemResetWarning,0830.8,5.01,000.00,025.5,024.1,000.0,033.7,027.0,20.4,0000.5,0014.26,0008.84,0008.18
2023-11-17 19:14:00,SystemResetWarning,0830.7,5.00,000.00,025.5,024.3,000.0,033.7,027.1,20.4,0000.3,0014.52,0008.90,0008.19
2023-11-17 19:15:00,SystemResetWarning,0830.7,4.99,000.00,025.6,024.5,000.0,033.7,027.2,20.3,0000.5,0014.52,0008.94,0008.18
2023-11-17 19:16:00,SystemResetWarning,0830.7,5.00,000.00,025.6,024.6,000.0,033.7,027.3,20.5,0001.1,0014.39,0008.94,0008.17
2023-11-17 19:17:00,SystemResetWarning,0830.7,5.00,000.00,025.7,024.7,000.0,033.7,027.3,20.3,0000.9,0013.51,0008.93,0008.18
2023-11-17 19:18:00,SystemResetWarning,0830.8,5.00,000.00,025.7,024.8,000.0,033.8,027.4,20.2,0000.6,0013.94,0008.93,0008.18
2023-11-17 19:19:00,SystemResetWarning,0830.8,5.00,000.00,025.8,024.9,000.0,033.8,027.4,20.2,0000.5,0014.02,0008.90,0008.18
2023-11-17 19:20:00,SystemResetWarning,0830.7,5.00,000.00,025.8,025.0,000.0,033.8,027.5,20.2,0000.8,0013.87,0008.91,0008.18
2023-11-17 19:21:00,SystemResetWarning,0830.8,5.00,000.00,025.9,025.1,000.0,033.9,027.5,20.1,0000.8,0013.64,0008.94,0008.19
2023-11-17 19:22:00,SystemResetWarning,0830.8,5.00,000.00,025.9,025.2,000.0,033.9,027.6,20.1,0000.8,0014.29,0008.92,0008.20
2023-11-17 19:23:00,SystemResetWarning,0830.8,5.00,000.00,026.0,025.3,000.0,033.9,027.6,20.1,0000.5,0014.17,0008.91,0008.25
2023-11-17 19:24:00,SystemResetWarning,0830.8,5.00,000.00,026.0,025.3,000.0,034.0,027.7,20.1,0000.5,0014.14,0008.94,0008.29
2023-11-17 19:25:00,SystemResetWarning,0830.9,5.00,000.00,026.1,025.3,000.0,034.0,027.7,20.0,0000.6,0014.06,0008.99,0008.35
2023-11-17 19:26:00,SystemResetWarning,0830.8,4.99,000.00,026.1,023.9,000.0,034.0,027.6,19.8,0000.7,0014.06,0009.02,0008.41
2023-11-17 19:27:00,SystemResetWarning,0830.7,5.01,000.00,025.9,022.8,000.0,034.0,027.3,20.0,0000.2,0014.07,0009.08,0008.49
2023-11-17 19:28:00,SystemResetWarning,0830.7,5.01,000.00,025.8,022.8,000.0,033.9,027.0,20.1,0000.1,0014.10,0009.17,0008.56
2023-11-17 19:29:00,SystemResetWarning,0830.6,4.99,000.00,025.7,023.1,000.0,033.9,026.8,20.2,0000.4,0014.64,0009.28,0008.63
2023-11-17 19:30:00,SystemResetWarning,0830.7,5.00,000.00,025.7,023.4,000.0,033.9,026.9,20.1,0000.5,0014.85,0009.35,0008.69
2023-11-17 19:31:00,SystemResetWarning,0830.7,5.00,000.00,025.7,023.8,000.0,033.9,027.0,20.2,0000.3,0015.37,0009.48,0008.75
2023-11-17 19:32:00,SystemResetWarning,0830.7,5.00,000.00,025.7,024.0,000.0,033.9,027.1,20.3,0000.5,0015.24,0009.53,0008.80
2023-11-17 19:33:00,SystemResetWarning,0830.8,5.00,000.00,025.7,024.3,000.0,033.9,027.2,20.2,0000.2,0014.65,0009.58,0008.84
2023-11-17 19:34:00,SystemResetWarning,0830.8,5.00,000.00,025.8,024.5,000.0,033.9,027.3,20.2,0000.2,0014.61,0009.61,0008.86
2023-11-17 19:35:00,SystemResetWarning,0830.8,5.00,000.00,025.8,024.7,000.0,033.9,027.4,20.1,0000.6,0015.24,0009.68,0008.91
2023-11-17 19:36:00,SystemResetWarning,0830.8,5.01,000.00,025.9,024.8,000.0,033.9,027.4,19.9,0000.7,0016.13,0009.68,0008.93
2023-11-17 19:37:00,SystemResetWarning,0830.8,5.00,000.00,025.9,025.0,000.0,034.0,027.5,19.9,0000.8,0016.27,0009.73,0008.96
2023-11-17 19:38:00,SystemResetWarning,0830.7,5.00,000.00,026.0,025.1,000.0,034.0,027.6,19.8,0000.9,0016.40,0009.78,0008.98
2023-11-17 19:39:00,SystemResetWarning,0830.7,5.00,000.00,026.0,025.2,000.0,034.0,027.6,19.8,0001.0,0016.50,0009.81,0009.00
2023-11-17 19:40:00,SystemResetWarning,0830.7,5.00,000.00,026.1,025.3,000.0,034.0,027.7,19.9,0001.1,0015.44,0009.82,0009.03
2023-11-17 19:41:00,SystemResetWarning,0830.7,4.99,000.00,026.1,024.8,000.0,034.1,027.7,19.9,0001.0,0015.03,0009.84,0009.04
2023-11-17 19:42:00,SystemResetWarning,0830.7,5.00,000.00,026.0,022.8,000.0,034.0,027.3,19.9,0001.0,0014.68,0009.81,0009.03
2023-11-17 19:43:00,SystemResetWarning,0830.7,5.01,000.00,025.8,021.7,000.0,034.0,026.9,20.1,0000.6,0014.55,0009.77,0009.02
2023-11-17 19:44:00,SystemResetWarning,0830.7,5.01,000.00,025.7,021.8,000.0,033.9,026.7,20.4,0000.4,0015.25,0009.79,0009.03
2023-11-17 19:45:00,SystemResetWarning,0830.7,4.99,000.00,025.6,022.3,000.0,033.9,026.5,20.4,0000.5,0015.60,0009.80,0009.05
2023-11-17 19:46:00,SystemResetWarning,0830.7,5.00,000.00,025.5,022.7,000.0,033.9,026.6,20.5,0000.3,0015.72,0009.81,0009.09
2023-11-17 19:47:00,SystemResetWarning,0830.8,5.00,000.00,025.5,023.1,000.0,033.8,026.7,20.5,0000.3,0014.86,0009.86,0009.14
2023-11-17 19:48:00,SystemResetWarning,0830.8,5.01,000.00,025.5,023.5,000.0,033.8,026.9,20.6,0000.1,0014.82,0009.87,0009.17
2023-11-17 19:49:00,SystemResetWarning,0830.8,5.00,000.00,025.6,023.8,000.0,033.8,027.0,20.5,-000.2,0015.10,0009.90,0009.20
2023-11-17 19:50:00,SystemResetWarning,0830.8,5.00,000.00,025.6,024.1,000.0,033.8,027.1,20.3,-000.4,0015.26,0009.94,0009.25
2023-11-17 19:51:00,SystemResetWarning,0830.7,4.99,000.00,025.6,024.3,000.0,033.8,027.2,20.2,-000.7,0015.52,0009.95,0009.27
2023-11-17 19:52:00,SystemResetWarning,0830.8,5.00,000.00,025.7,024.5,000.0,033.8,027.2,20.1,-000.6,0016.07,0010.02,0009.32
2023-11-17 19:53:00,SystemResetWarning,0830.7,5.01,000.00,025.7,024.7,000.0,033.8,027.3,19.9,-000.4,0016.19,0010.05,0009.36
2023-11-17 19:54:00,SystemResetWarning,0830.7,5.00,000.00,025.8,024.8,000.0,033.9,027.4,19.7,-000.1,0016.33,0010.13,0009.42
2023-11-17 19:55:00,SystemResetWarning,0830.8,5.00,000.00,025.8,024.9,000.0,033.9,027.5,19.6,0000.2,0015.98,0010.19,0009.47
2023-11-17 19:56:00,SystemResetWarning,0830.7,4.99,000.00,025.9,025.1,000.0,033.9,027.5,19.7,0000.4,0015.83,0010.23,0009.51
2023-11-17 19:57:00,SystemResetWarning,0830.7,5.00,000.00,025.9,025.2,000.0,033.9,027.6,19.7,0000.7,0015.87,0010.26,0009.52
2023-11-17 19:58:00,SystemResetWarning,0830.7,5.00,000.00,026.0,025.2,000.0,034.0,027.6,19.7,0000.9,0015.87,0010.22,0009.49
2023-11-17 19:59:00,SystemResetWarning,0830.7,4.99,000.00,026.0,024.9,000.0,034.0,027.7,19.6,0001.0,0016.33,0010.22,0009.47
